Weather History for Everett, WA

Change the Weather History Date:

Wednesday, July 10, 2013

  Actual Average Record
Temperature  
Mean Temperature 62 °F -  
Max Temperature 72 °F 71 °F 85 °F (1985)
Min Temperature 54 °F 53 °F 47 °F (1970)
Degree Days  
Heating Degree Days 3    
Growing Degree Days 12 (Base 50)    
Moisture  
Dew Point 51 °F    
Average Humidity 72    
Maximum Humidity 90    
Minimum Humidity 55    
Precipitation  
Precipitation 0.00 in - - ()
Sea Level Pressure  
Sea Level Pressure 30.04 in    
Wind  
Wind Speed 6 mph (NNW)    
Max Wind Speed 10 mph    
Max Gust Speed 17 mph    
Visibility 10 miles    
Events      
Averages and records for this station are not official NWS values.
T = Trace of Precipitation, MM = Missing Value Source: NWS Daily Summary

Daily Weather History Graph

Daily Weather History Graph

Search for Another Location

Airport:

Trip Planner

Search our weather history database for the weather conditions in past years. The results will help you decide how hot, cold, wet, or windy it might be!

Date:

Astronomy

Jul. 10, 2013 Rise Set
Actual Time 5:21 AM PDT 9:07 PM PDT
Civil Twilight 4:41 AM PDT 9:47 PM PDT
Nautical Twilight 3:47 AM PDT 10:41 PM PDT
Astronomical Twilight 2:27 AM PDT 11:59 PM PDT
Moon 8:02 AM PDT (7/10) 10:02 PM PDT (7/10)
Length of Visible Light 17h 05m
Length of Day
15h 46m
Waxing Crescent, 6% of the Moon is Illuminated
Jul 10
Waxing Crescent
Jul 15
First Quarter
Jul 22
Full
Jul 29
Last Quarter
Aug 6
New

Hourly Weather History & Observations

Time (PDT) Temp. Dew Point Humidity Pressure Visibility Wind Dir Wind Speed Gust Speed Precip Events Conditions
12:53 AM 59.0 °F 50.0 °F 72% 30.05 in 10.0 mi Variable 3.5 mph - N/A   Clear
1:53 AM 59.0 °F 51.1 °F 75% 30.05 in 10.0 mi Variable 3.5 mph - N/A   Clear
2:53 AM 57.9 °F 51.1 °F 78% 30.04 in 10.0 mi NNE 6.9 mph - N/A   Clear
3:53 AM 55.9 °F 50.0 °F 80% 30.05 in 10.0 mi NNE 5.8 mph - N/A   Partly Cloudy
4:53 AM 55.0 °F 50.0 °F 83% 30.05 in 10.0 mi NNE 5.8 mph - N/A   Clear
5:53 AM 54.0 °F 51.1 °F 90% 30.05 in 10.0 mi NNE 6.9 mph - N/A   Clear
6:53 AM 57.0 °F 51.1 °F 81% 30.06 in 10.0 mi Calm Calm - N/A   Clear
7:53 AM 59.0 °F 51.1 °F 75% 30.06 in 10.0 mi NE 3.5 mph - N/A   Clear
8:53 AM 61.0 °F 51.1 °F 70% 30.07 in 10.0 mi NNW 6.9 mph - N/A   Clear
9:33 AM 60.8 °F 51.8 °F 72% 30.08 in 10.0 mi Variable 4.6 mph - N/A   Mostly Cloudy
9:53 AM 61.0 °F 52.0 °F 72% 30.08 in 10.0 mi Variable 3.5 mph - N/A   Overcast
10:33 AM 62.6 °F 53.6 °F 72% 30.08 in 10.0 mi WNW 8.1 mph - N/A   Overcast
10:49 AM 60.8 °F 53.6 °F 77% 30.08 in 10.0 mi West 6.9 mph - N/A   Overcast
10:53 AM 61.0 °F 53.1 °F 75% 30.08 in 10.0 mi WNW 5.8 mph - N/A   Overcast
11:53 AM 63.0 °F 53.1 °F 70% 30.08 in 10.0 mi WNW 5.8 mph - N/A   Overcast
12:14 PM 64.4 °F 53.6 °F 68% 30.08 in 10.0 mi Variable 4.6 mph - N/A   Scattered Clouds
12:53 PM 66.0 °F 53.1 °F 63% 30.07 in 10.0 mi West 5.8 mph - N/A   Scattered Clouds
1:53 PM 66.9 °F 53.1 °F 61% 30.06 in 10.0 mi West 9.2 mph - N/A   Scattered Clouds
2:53 PM 70.0 °F 53.1 °F 55% 30.05 in 10.0 mi Variable 5.8 mph - N/A   Clear
3:53 PM 70.0 °F 53.1 °F 55% 30.03 in 10.0 mi West 8.1 mph - N/A   Clear
4:53 PM 66.0 °F 53.1 °F 63% 30.02 in 10.0 mi NNW 4.6 mph - N/A   Clear
5:53 PM 62.1 °F 51.1 °F 67% 30.01 in 10.0 mi North 10.4 mph - N/A   Clear
6:53 PM 62.1 °F 50.0 °F 65% 29.99 in 10.0 mi Variable 6.9 mph - N/A   Clear
7:53 PM 59.0 °F 48.9 °F 69% 29.99 in 10.0 mi NNE 8.1 mph - N/A   Clear
8:53 PM 55.9 °F 48.9 °F 77% 29.98 in 10.0 mi North 6.9 mph - N/A   Clear
9:53 PM 55.0 °F 48.0 °F 77% 29.99 in 10.0 mi North 9.2 mph 17.3 mph N/A   Mostly Cloudy
10:53 PM 55.0 °F 46.0 °F 72% 30.00 in 10.0 mi North 9.2 mph - N/A   Overcast
11:53 PM 55.0 °F 46.0 °F 72% 30.01 in 10.0 mi NNE 9.2 mph - N/A   Overcast